Powrót do katalogu

STARLINK-32114

AktywnyŁącznośćVLEO
NORAD 60287·PAYLOAD·🇺🇸 United States

Wystrzelony Jul 28, 2024 z Cape Canaveral Space Force Station

Loading…

Następne Przeloty (najbliższe 24 godziny)

TLE

ŚwieżeSource: CelesTrak SupGP

Epoka: Sep 15, 2026, 02:46 UTC

1 60287C 24132K   26258.11576389 -.00038911  00000+0 -12511-2 0  2581
2 60287  53.1585 251.6008 0001356  87.1028 357.4117 15.31726221    14

Śledź STARLINK-32114 w czasie rzeczywistym z AllMySat

Download on the App Store